User: anonymous   Login
Location: Cluny
(50.9333°N, 112.8167°W)
Time: 01:55:57
(UTC-07:00)
Language:

Cosmos 1743 Rocket - Orbit

View from above orbital plane
View from above orbital plane
View from above satellite
View from above satellite

Ground track
Ground track

The orbit data is extracted from the following two-line orbital elements,

1 16720U 86034B   17057.88586863  .00000112  00000-0  10703-4 0  9998
2 16720  82.5570 344.3341 0021768 104.3085 320.7183 14.83276173662912
Epoch (UTC): 26 February 2017 21:15:39
Eccentricity: 0.0021768
inclination: 82.5570°
perigee height: 604 km
apogee height: 634 km
right ascension of ascending node: 344.3341°
argument of perigee: 104.3085°
revolutions per day: 14.83276173
mean anomaly at epoch: 320.7183°
orbit number at epoch: 66291

The dashed part of the orbit path shows where the satellite is in the earth's shadow,  

DLR